Погода в Зигиншоре

Сенегал     12°33′37″N   16°14′58″W
темп.,
°C
ветер,
м/с
пор.,
м/с
влажн.,
%
обл.,
%
осадки,
мм/ч
давл.,
гПа
погр.,
м
21 апреля, ср
ср2100:00+24зсз38606 0.0 1010345
03:00+23сз386593 0.0 1008320
06:00+21зсз247398 0.0 1009146
09:00+25сз2353100 0.0 1012454
12:00+34ссз2323100 0.0 10111055
15:00+39сз231524 0.0 10072007
18:00+30зсз683917 0.0 1008476
21:00+24зсз510606 0.0 1010339
22 апреля, чт
чт2200:00+23зсз396757 0.0 1011374
03:00+22зсз397725 0.0 1010350
06:00+20сз268310 0.0 1010239
09:00+25ссз345493 0.0 1013503
12:00+34сз222399 0.0 10121192
15:00+38з32176 0.0 10091938
18:00+31зсз663111 0.0 1009684
21:00+24з47645 0.0 1012291
23 апреля, пт
пт2300:00+22зсз49746 0.0 1012329
03:00+21сз388063 0.0 1010326
06:00+20ссз3886100 0.0 1011337
09:00+25с345535 0.0 1013496
12:00+34ссз3320100 0.0 10121130
15:00+39сз32149 0.0 10081876
18:00+33зсз77265 0.0 1008578
21:00+25зсз5105320 0.0 1010342
24 апреля, сб
сб2400:00+23зсз39650 0.0 1011350
03:00+21сз410745 0.0 1009343
06:00+20ссз27815 0.0 1010238
09:00+26ссз34505 0.0 1011474
12:00+35сз33195 0.0 10101171
15:00+38зсз42155 0.0 10072073
18:00+31зсз672631 0.0 1008647
21:00+24зсз5106012 0.0 1010374
25 апреля, вс
вс2500:00+22зсз410695 0.0 1011373
03:00+21сз39765 0.0 1010345
06:00+20сз24835 0.0 1011103
09:00+25ссз34505 0.0 1012464
12:00+34сз33205 0.0 10121175
15:00+38зсз5316100 0.0 10081954
18:00+31зсз672695 0.0 1009672
21:00+24зсз495977 0.0 1011312